[[{"header":{"parameterUnit":"m.s-1","parameterCategory":1,"la1":30.2991,"la2":30.254,"lo1":-89.0895,"lo2":-89.0444,"dy":0.0017,"dx":0.0017,"nx":28,"ny":28,"refTime":"2025-12-10T03:00:00:Z","depth":0,"parameterNumber":2,"parameterNumberName":"U-component_of_WINDS"},"data":[0,0,0,0,0,0,0,0,0,0,0,0,0,0,0,0,0,0,0,0,0,0,0,0,0,0,0,0,0,0,0,0,0,0,0,0,0,0,0,0,0,0,0,0,0,0,0,0,0,0,0,0,0,0,0,0,0,0,3.7549,3.755,0,3.7657,3.7658,3.7659,3.7627,3.7624,3.7622,3.762,3.7742,3.7747,3.7752,0,0,0,0,0,0,0,0,0,0,0,0,0,3.7325,3.7329,3.7549,3.755,3.7551,3.7656,3.7658,3.7659,3.7627,3.7624,3.7621,3.7619,3.774,3.7746,3.7753,0,0,0,0,0,0,0,0,0,0,0,0,0,3.7427,3.7331,3.7548,3.7547,3.7548,3.7656,3.7658,3.766,3.7628,3.7624,3.7621,3.7617,3.7738,3.7745,3.7753,3.7872,0,0,3.7778,3.7782,0,0,0,0,0,0,0,0,3.7421,3.7435,3.7546,3.7548,3.7549,3.7624,3.7624,3.7731,3.7628,3.7598,3.762,3.7616,3.7706,3.7716,3.7745,3.7878,3.7883,3.7779,3.7784,3.7787,3.7789,0,0,0,0,0,0,0,3.7414,3.743,3.7592,3.7548,3.755,3.7545,3.7556,3.7644,3.767,3.76,3.7598,3.7611,3.7706,3.7737,3.7747,3.7885,3.7779,3.7786,3.7791,3.7794,3.8122,3.8126,0,0,0,0,0,0,3.7405,3.7425,3.7588,3.7595,3.7475,3.7552,3.7564,3.7604,3.7669,3.7676,3.7614,3.7609,3.7725,3.7738,3.7751,3.7895,3.7787,3.7795,3.7799,3.8118,3.8123,3.8127,0,0,0,0,0,0,3.74,3.7419,3.7584,3.7509,3.753,3.7559,3.7605,3.7608,3.7638,3.7679,3.7685,3.7639,3.7723,3.774,3.7842,3.7899,3.7798,3.7806,3.8113,3.8119,3.8125,3.8183,0,0,0,0,0,0,3.7394,3.7418,3.7461,3.751,3.7534,3.7669,3.7608,3.7612,3.7651,3.7646,3.7705,3.7711,3.7721,3.783,3.785,3.7908,3.7812,3.8109,3.8116,3.8123,3.8176,3.819,3.8202,0,0,0,0,0,3.7386,3.7475,3.7463,3.7483,3.7587,3.7672,3.7686,3.7693,3.7656,3.7701,3.7727,3.7709,3.7889,3.784,3.7863,3.7924,3.8105,3.8114,3.8122,3.817,3.8187,3.8202,0,0,0,0,0,0,3.7435,3.7481,3.7469,3.7576,3.762,3.7667,3.7723,3.771,3.7769,3.7762,3.7771,3.7785,3.7889,3.7917,3.7862,3.8043,3.7992,3.8006,3.8021,3.8037,3.805,3.8042,3.7819,0,0,0,0,0,3.7458,3.752,3.7558,3.7649,3.7672,3.7694,3.7731,3.7732,3.778,3.7799,3.7833,3.7883,3.7951,3.7996,3.806,3.818,3.8193,3.8233,3.8246,3.8257,3.8269,3.8335,3.8354,3.8156,3.8156,3.8155,0,0,3.7507,3.754,3.7579,3.766,3.7694,3.7762,3.771,3.7783,3.7834,3.7812,3.7909,3.7936,3.7992,3.8103,3.8154,3.813,3.8326,3.8268,3.8276,3.8282,3.8346,3.8365,3.8382,3.8162,3.816,3.816,0,0,3.763,3.766,3.7739,3.7774,3.7825,3.784,3.7859,3.7907,3.7923,3.802,3.8005,3.8067,3.8183,3.8224,3.8261,3.84,3.8387,3.8421,3.8489,3.8554,3.8569,3.8583,3.8634,3.8652,3.8432,3.8433,3.8433,0,3.7685,3.7782,3.7783,3.7857,3.7894,3.7873,3.7956,3.7991,3.8062,3.809,3.8061,3.8206,3.8243,3.8364,3.8397,3.8427,3.8452,3.8414,3.8566,3.858,3.8594,3.8642,3.8661,3.8436,3.8436,3.8436,3.8435,0,3.7848,3.7916,3.7975,3.804,3.8084,3.8162,3.8178,3.8223,3.822,3.8239,3.8339,3.8382,3.8455,3.8484,3.8483,3.8605,3.8589,3.8563,3.8512,3.8616,3.8662,3.8681,3.8442,3.8441,3.8439,3.8439,0,0,3.8007,3.807,3.8092,3.8121,3.8177,3.8231,3.8309,3.8377,3.8416,3.8467,3.8535,3.8633,3.8609,3.865,3.8655,3.8711,3.882,3.8679,3.8681,3.8705,3.8959,3.8979,3.9,3.8811,3.8815,3.8818,3.8955,0,3.8135,3.8268,3.8271,3.8395,3.8459,3.844,3.8509,3.8552,3.8572,3.8632,3.8655,3.8724,3.8687,3.8712,3.8767,3.8795,3.8872,3.8785,3.8878,3.8881,3.8864,3.9024,3.9045,3.9172,3.8973,3.8976,3.8978,0,3.8303,3.8354,3.8484,3.8529,3.8557,3.8618,3.868,3.8737,3.8787,3.8797,3.8842,3.8838,3.8922,3.8867,3.8984,3.8925,3.8963,3.8983,3.8988,3.8998,3.8936,3.9039,3.9213,3.9232,3.9006,3.9004,3.9002,0,3.8406,3.8509,3.8599,3.8625,3.8681,3.8725,3.8751,3.8796,3.8837,3.8894,3.8921,3.8987,3.9024,3.9078,3.9093,3.9051,3.9211,3.9157,3.9224,3.9224,3.9259,3.9257,3.9443,3.9282,3.9282,3.9282,3.9281,0,3.855,3.8631,3.8646,3.8702,3.8792,3.8797,3.8887,3.8911,3.8952,3.9014,3.9003,3.9063,3.9079,3.9143,3.9156,3.9252,3.9269,3.9282,3.9284,3.9283,3.9282,3.9309,3.9301,3.9287,3.9286,3.9285,3.9284,0,3.8682,3.8695,3.8793,3.8836,3.8849,3.8914,3.8953,3.9009,3.9026,3.9106,3.9125,3.9154,3.9229,3.9248,3.9339,3.9347,3.9461,3.9455,3.9443,3.9443,3.951,3.9503,3.972,3.975,3.9569,3.9571,3.9572,0,3.8773,3.8834,3.8883,3.8922,3.8949,3.9013,3.9053,3.9061,3.9105,3.9166,3.9215,3.9287,3.9345,3.9466,3.9497,3.9567,3.9563,3.9634,3.9574,3.9571,3.9566,3.9562,3.9569,3.9646,3.9648,3.965,3.9651,0,3.8934,3.8937,3.8994,3.9054,3.9102,3.915,3.9197,3.9231,3.9245,3.9296,3.9369,3.9414,3.9505,3.9578,3.9648,3.9679,3.9669,3.9669,3.9689,3.9689,3.968,3.9687,3.9475,3.9665,3.9664,3.9663,3.9662,3.9661,3.9049,3.9102,3.9145,3.9209,3.9244,3.9288,3.9342,3.9365,3.9425,3.9497,3.9499,3.958,3.963,3.9722,3.9756,3.9822,3.9802,3.983,3.9837,3.9844,3.985,3.9668,3.9835,3.9835,3.9835,3.9834,3.9834,0,3.9211,3.9236,3.9295,3.9359,3.941,3.9392,3.9443,3.9488,3.9558,3.9603,3.966,3.9746,3.9817,3.9853,3.9924,3.997,3.9968,3.9989,3.9987,3.9994,3.9864,3.984,3.999,3.999,3.999,3.999,3.999,3.999,3.93,3.939,3.9398,3.9506,3.9532,3.9608,3.9639,3.9681,3.9717,3.9812,3.9869,3.9891,3.9934,4.0008,4.0073,4.0082,4.011,4.0134,4.0141,4.0019,4.0003,3.9988,3.9966,4.0139,4.0139,4.0265,4.0266,4.0267]},{"header":{"parameterUnit":"m.s-1","parameterCategory":1,"la1":30.2991,"la2":30.254,"lo1":-89.0895,"lo2":-89.0444,"dy":0.0017,"dx":0.0017,"nx":28,"ny":28,"refTime":"2025-12-10T03:00:00:Z","depth":0,"parameterNumber":3,"parameterNumberName":"V-component_of_WINDS"},"data":[0,0,0,0,0,0,0,0,0,0,0,0,0,0,0,0,0,0,0,0,0,0,0,0,0,0,0,0,0,0,0,0,0,0,0,0,0,0,0,0,0,0,0,0,0,0,0,0,0,0,0,0,0,0,0,0,0,0,0.5746,0.5745,0,0.5622,0.5621,0.562,0.5569,0.5569,0.557,0.557,0.5436,0.5432,0.5429,0,0,0,0,0,0,0,0,0,0,0,0,0,0.5933,0.593,0.5747,0.5745,0.5743,0.5623,0.5621,0.5619,0.5569,0.5569,0.557,0.557,0.5437,0.5433,0.5428,0,0,0,0,0,0,0,0,0,0,0,0,0,0.5835,0.5929,0.5747,0.5704,0.5699,0.5623,0.5621,0.5619,0.5569,0.5569,0.557,0.557,0.5439,0.5433,0.5428,0.5383,0,0,0.541,0.5407,0,0,0,0,0,0,0,0,0.584,0.5828,0.5712,0.5707,0.5701,0.5612,0.5638,0.5539,0.5569,0.5618,0.557,0.557,0.5494,0.5484,0.5459,0.5377,0.5371,0.5409,0.5406,0.5403,0.5402,0,0,0,0,0,0,0,0.5847,0.5833,0.5697,0.571,0.5704,0.5689,0.5675,0.5619,0.5555,0.5614,0.561,0.5596,0.5491,0.5465,0.5455,0.5369,0.541,0.5405,0.5401,0.5399,0.5242,0.5242,0,0,0,0,0,0,0.5862,0.5839,0.5701,0.5694,0.5773,0.5685,0.567,0.564,0.5555,0.5543,0.5596,0.5594,0.5474,0.5462,0.5451,0.5392,0.5404,0.5398,0.5395,0.5243,0.5242,0.5241,0,0,0,0,0,0,0.5866,0.585,0.5706,0.5765,0.5746,0.5681,0.5648,0.5637,0.5611,0.5542,0.5529,0.5582,0.5474,0.5459,0.54,0.5387,0.5396,0.539,0.5244,0.5243,0.5242,0.5275,0,0,0,0,0,0,0.5872,0.5852,0.5836,0.5765,0.5743,0.566,0.5647,0.5634,0.5602,0.5599,0.5525,0.5513,0.5473,0.5409,0.5395,0.5379,0.5386,0.5245,0.5243,0.5242,0.5275,0.5276,0.5276,0,0,0,0,0,0.5879,0.5849,0.5836,0.5819,0.5722,0.566,0.5646,0.5603,0.5601,0.5584,0.5539,0.5515,0.5391,0.5404,0.5387,0.5369,0.5245,0.5244,0.5242,0.5275,0.5275,0.5276,0,0,0,0,0,0,0.5918,0.5839,0.5823,0.577,0.5723,0.5651,0.5628,0.5605,0.5555,0.5554,0.55,0.5484,0.543,0.5393,0.5409,0.5321,0.5316,0.5311,0.5347,0.5347,0.5347,0.5356,0.5381,0,0,0,0,0,0.5921,0.5879,0.5812,0.5771,0.5748,0.5693,0.5664,0.5635,0.5582,0.5561,0.5512,0.5459,0.5408,0.5375,0.5324,0.527,0.5252,0.5249,0.525,0.525,0.5246,0.5213,0.5211,0.5236,0.5236,0.5236,0,0,0.5926,0.5877,0.5854,0.5778,0.5738,0.5693,0.5676,0.563,0.5596,0.5553,0.5495,0.5457,0.5395,0.5338,0.5311,0.5306,0.5235,0.5248,0.5249,0.5245,0.5211,0.5209,0.5207,0.5235,0.5235,0.5236,0,0,0.5912,0.5872,0.5834,0.5794,0.5733,0.5696,0.5687,0.5619,0.5593,0.5535,0.5502,0.546,0.5373,0.533,0.5297,0.5267,0.5242,0.5251,0.5253,0.5221,0.5219,0.5217,0.5205,0.5202,0.5248,0.5248,0.5248,0,0.5925,0.5859,0.5816,0.5773,0.5739,0.5701,0.5661,0.5623,0.5548,0.5525,0.5522,0.5412,0.5368,0.53,0.5293,0.5267,0.5253,0.5259,0.5224,0.5221,0.5218,0.5206,0.5202,0.5249,0.5249,0.5249,0.5249,0,0.5877,0.5832,0.5808,0.574,0.5704,0.5662,0.5611,0.5579,0.5553,0.5516,0.5456,0.5401,0.5338,0.532,0.5294,0.5248,0.5247,0.5235,0.5228,0.5218,0.5206,0.5201,0.5251,0.5251,0.525,0.525,0,0,0.5884,0.5793,0.5785,0.5753,0.5683,0.5646,0.5602,0.5543,0.5516,0.5465,0.5425,0.5353,0.5341,0.5303,0.5271,0.5244,0.5222,0.5234,0.5232,0.5233,0.5167,0.5176,0.5172,0.5206,0.5205,0.5204,0.5171,0,0.586,0.5782,0.5742,0.568,0.5636,0.5599,0.556,0.5512,0.5476,0.5432,0.539,0.534,0.5328,0.5305,0.5277,0.5231,0.5208,0.5233,0.5166,0.5164,0.5182,0.5165,0.5175,0.5147,0.5166,0.5166,0.5165,0,0.5822,0.5774,0.5709,0.5644,0.5624,0.559,0.5532,0.5491,0.5435,0.541,0.5369,0.5338,0.5287,0.5285,0.5213,0.5231,0.5201,0.5175,0.5173,0.5164,0.5163,0.5155,0.5137,0.5132,0.5157,0.5158,0.5158,0,0.5833,0.5752,0.5701,0.5675,0.5599,0.5575,0.5542,0.5486,0.5453,0.5402,0.5379,0.5322,0.529,0.5245,0.5198,0.5202,0.513,0.5125,0.5106,0.5107,0.5092,0.5094,0.5068,0.5075,0.5075,0.5075,0.5075,0,0.581,0.577,0.5705,0.5674,0.5629,0.5582,0.5537,0.5501,0.5452,0.5411,0.5374,0.5336,0.5278,0.5232,0.5195,0.514,0.5126,0.5103,0.5093,0.5105,0.5108,0.5084,0.5085,0.5074,0.5074,0.5074,0.5075,0,0.5813,0.5769,0.5711,0.5644,0.5626,0.5595,0.5536,0.5503,0.5466,0.5415,0.54,0.534,0.5284,0.5233,0.5158,0.5133,0.5077,0.5065,0.5097,0.5091,0.5075,0.5077,0.5032,0.5023,0.5038,0.5038,0.5038,0,0.5801,0.5771,0.5701,0.5672,0.564,0.5594,0.5561,0.5513,0.5479,0.5413,0.5387,0.533,0.5281,0.5192,0.514,0.5082,0.5068,0.5057,0.5059,0.5072,0.5066,0.5068,0.5064,0.5057,0.5057,0.5057,0.5057,0,0.5784,0.5764,0.5718,0.5664,0.5626,0.5581,0.5534,0.5512,0.5455,0.5419,0.5362,0.5325,0.5249,0.5191,0.5127,0.509,0.5063,0.5057,0.5049,0.5061,0.508,0.5068,0.5097,0.5058,0.5058,0.5058,0.5058,0.5058,0.5778,0.5749,0.5696,0.5646,0.5606,0.5564,0.553,0.5488,0.5441,0.5378,0.5352,0.5294,0.5237,0.5149,0.5112,0.5064,0.5059,0.5048,0.5045,0.5043,0.5045,0.5089,0.5053,0.5052,0.5052,0.5052,0.5052,0,0.5758,0.5723,0.5677,0.5614,0.5575,0.5556,0.5503,0.547,0.5421,0.5371,0.5324,0.5259,0.5202,0.5146,0.5086,0.5058,0.5044,0.5044,0.5045,0.5036,0.5054,0.5066,0.5056,0.5056,0.5056,0.5056,0.5056,0.5056,0.5743,0.5693,0.5666,0.5594,0.5557,0.5503,0.5474,0.5434,0.5394,0.5323,0.5277,0.5242,0.5189,0.5124,0.5071,0.5055,0.5034,0.5037,0.5018,0.5035,0.5035,0.5035,0.5047,0.5033,0.5033,0.5004,0.5004,0.5004]}]]